Starlink 4709

operational
NORAD ID: 53778 Int'l Des: 2022-111 Owner: SPXS Country: US Constellation: starlink
LEOCIRCULAR

Über Starlink 4709

Beschreibung wird geladen...

Live-Position

3D-Globus wird geladen...

Nächste Überflüge

Höhenverlauf

Altitude vs Time

uPlot chart will show altitude changes over time

Zweizeiliger Elementsatz

1 53778U 22111F 25299.04859279 -.00000281 00000-0 42560-6 0 9993
2 53778 53.2163 163.2734 0001307 86.0560 274.0581 15.08836108173305
Epoch: 26. Okt. 2025 • Age: 11 hours

Aktueller Status

Höhe 553.3 km
Geschwindigkeit 7.58 km/s
Subsatellitenpunkt -39.07°S, 167.42°E
Startdatum 11. Sept. 2022
Alter 3.1 years
Typ internet

Technische Details

Klassifizierung Payload
Masse 305.00 kg
Trockenmasse 290.00 kg
Gesamtmasse 305.00 kg
Länge 0.20 m
Durchmesser 2.80 m
Spannweite 9.00 m
Form Box + pan
Hersteller SPXS
Bus-Typ Starlink
Phasenstatus In Orbit
Besitzer/Staat SPXS/US

Große Konstellationen

Loading constellations...